Location: Aibes
(50.2357°N, 4.0956°E)
Time: 05:06:59
(UTC+00:00)

Daily predictions for brighter satellites

Satellite Brightness Start Highest point End
(mag) Time Altitude Azimuth Time Altitude Azimuth Time Altitude Azimuth
SL-16 R/B 4.1 03:19:10 25° ENE 03:19:10 25° ENE 03:22:56 10° E
Cosmos 2082 Rocket 4.0 03:23:08 28° E 03:23:08 28° E 03:26:40 10° NE
USA 234 4.1 03:24:07 10° ENE 03:28:36 44° NE 03:28:36 44° NE
NOSS 3-1 (C) 3.9 03:52:29 76° NNE 03:52:43 77° NE 04:01:20 10° SE
COSMOS 2455 3.5 04:07:00 46° SSE 04:07:00 46° SSE 04:11:05 10° SSE
Cosmos 2360 Rocket 3.7 04:09:26 26° NNE 04:11:13 31° NE 04:16:11 10° ESE
Cosmos 2333 Rocket 3.2 04:11:00 36° NNE 04:12:23 42° NE 04:17:49 10° ESE
ATLAS 3B R/B 4.1 04:14:24 28° NNW 04:16:33 32° NNE 04:23:24 10° ENE
ACS3 Solar Sail 4.0 04:12:29 10° N 04:12:41 11° N 04:12:41 11° N
Nadezhda 4 Rocket 4.4 04:12:28 10° S 04:18:40 63° E 04:24:52 10° NNE
NOSS 3-4 (A) 4.4 04:23:03 33° N 04:23:03 33° N 04:27:25 10° NE
NOSS 3-4 (C) 4.3 04:23:12 33° N 04:23:12 33° N 04:27:36 10° NE
Cosmos 1898 Rocket 4.4 04:29:27 39° S 04:29:27 39° S 04:32:44 10° SSE
Cosmos 2219 Rocket 3.9 04:25:49 19° N 04:28:37 28° NE 04:33:24 10° ESE
COSMO-SKYMED 1 3.6 04:28:11 10° SE 04:32:03 40° ENE 04:32:40 38° NE
IRS-1D 4.3 04:28:35 10° NNE 04:33:27 49° E 04:38:23 10° S
Cosmos 2322 Rocket 3.1 04:32:25 30° N 04:34:51 46° NE 04:40:18 10° SE
Cosmos 1937 Rocket 3.5 04:49:25 60° SW 04:49:25 60° SW 04:53:55 10° S
Cosmos 858 Rocket 4.3 04:49:23 66° NNW 04:50:08 85° WSW 04:55:20 10° SSE
USA 59 Rocket 1.8 04:54:18 21° S 04:54:18 21° S 04:56:26 10° S
Cosmos 1833 Rocket 4.4 04:55:09 19° NNW 04:55:09 19° NNW 04:57:36 10° NNE
Cosmos 2237 4.3 04:53:25 54° WSW 04:53:25 54° WSW 04:58:45 10° S
Meteor 2-3 Rocket 3.9 04:48:41 10° S 04:54:24 76° E 05:00:05 10° NNE
Cosmos 2058 Rocket 3.5 04:54:41 23° N 04:57:17 60° ENE 05:01:38 10° SSE
COSMOS 2406 3.1 04:55:16 15° SSW 05:00:00 88° ESE 05:05:43 10° NNE
SKYMED 2 3.4 04:56:01 10° S 05:00:14 73° WSW 05:00:14 73° WSW
NOSS 3-1 (A) 3.9 04:57:15 35° NW 05:00:46 89° NE 05:09:31 10° SE
SL-16 R/B 2.1 05:01:03 44° NW 05:02:55 77° WSW 05:08:34 10° SSE
Cosmos 2082 Rocket 2.3 05:05:01 50° WNW 05:05:37 52° NW 05:11:07 10° NNE
CZ-4 R/B 3.7 05:02:19 10° NNE 05:07:00 83° ESE 05:11:36 10° SSW
ATLAS 5 CENTAUR R/B 3.5 05:10:38 12° N 05:10:38 12° N 05:11:11 10° NNE
SeaSat 1 3.9 05:04:58 10° NNE 05:07:30 23° NNW 05:07:30 23° NNW
BREEZE-M DEB (TANK) 3.2 05:12:01 56° SSE 05:12:01 56° SSE 05:14:09 10° E
Okean 1 3.4 05:11:24 37° N 05:12:37 63° ENE 05:16:09 10° SSE
USA 234 3.7 05:06:50 10° ENE 05:13:06 50° N 05:15:57 31° NW
CZ-2C R/B 4.2 05:11:49 10° N 05:13:16 17° NNW 05:13:16 17° NNW
Helios 1A Rocket 2.4 05:12:58 10° SSE 05:15:55 65° SSW 05:15:55 65° SSW
NOAA 12 4.0 05:12:01 10° NNE 05:17:20 82° WNW 05:22:36 10° SSW
Cosmos 2285 Rocket 4.2 05:17:03 13° NNW 05:22:52 73° ENE 05:29:16 10° SSE
BREEZE-M DEB (TANK) 2.3 05:23:26 71° SW 05:23:37 77° S 05:27:59 10° E
BREEZE-M DEB (TANK) 3.0 05:24:36 34° SW 05:25:23 41° S 05:30:52 10° ESE
Cosmos 2278 3.7 05:24:16 30° NW 05:26:57 59° WSW 05:32:28 10° S
SL-4 R/B 1.2 05:28:33 71° WSW 05:28:49 78° SSW 05:31:59 10° ESE
FengYun 1-2 T 4.5 05:24:20 10° N 05:29:43 46° WNW 05:35:05 10° SW
RUBIN 8/PSLV 4.5 05:27:41 10° NNE 05:32:02 90° ESE 05:36:19 10° SSW
NOSS 8 (A) 3.9 05:33:11 67° NW 05:33:31 87° NE 05:36:42 10° SE
Cosmos 2026 Rocket 3.8 05:28:21 10° SSW 05:34:22 68° WNW 05:40:29 10° N
Cosmos 2221 3.7 05:30:59 10° N 05:34:55 40° ENE 05:38:50 10° SE
SL-16 R/B 4.5 05:40:14 10° N 05:41:54 11° NNE 05:43:34 10° NE
Cosmos 405 Rocket 2.8 05:39:58 10° S 05:43:10 59° E 05:46:26 10° NNE
Cosmos 841 Rocket 4.0 05:40:31 22° WSW 05:43:19 37° NW 05:48:13 10° NNE
Cosmos 1707 4.3 05:42:47 10° NNE 05:45:33 27° ENE 05:48:16 10° SE
IRIDIUM 106 4.4 05:43:00 10° S 05:48:13 82° E 05:53:28 10° N
Cosmos 158 Rocket 4.4 05:43:27 10° S 05:48:43 66° ESE 05:53:55 10° NNE
COSMOS 2455 4.3 05:50:11 17° WSW 05:50:11 17° WSW 05:53:43 10° SW
Cosmos 2360 Rocket 2.2 05:51:12 17° NW 05:55:33 59° WSW 06:01:03 10° S
Cosmos 1626 Rocket 3.5 05:52:04 10° S 05:56:28 87° W 06:00:54 10° N
Cosmos 2333 Rocket 2.7 05:53:03 19° NW 05:56:42 42° WSW 06:02:02 10° S
Cosmos 1553 Rocket 4.0 05:51:03 10° NNW 05:57:25 72° W 06:03:47 10° S
SMAP 3.8 05:55:12 10° NNE 05:59:49 57° E 06:04:24 10° S
Cosmos 1892 Rocket 4.3 05:57:30 10° SW 06:01:21 29° WNW 06:05:14 10° N
Cosmos 1092 Rocket 4.1 05:55:16 10° SSW 06:01:21 51° WNW 06:07:25 10° N
Cosmos-2242 3.6 06:00:27 17° NW 06:03:05 33° W 06:06:51 10° SSW
Cosmos 2237 Rocket 3.9 06:01:22 10° NNW 06:06:01 25° NE 06:10:38 10° E
COSMO-SKYMED 1 3.6 06:04:13 10° SSW 06:07:30 23° W 06:08:59 19° WNW
Cosmos 1125 Rocket 3.6 06:02:14 10° NNW 06:07:32 79° ENE 06:12:46 10° SSE
ATLAS 3B R/B 3.4 06:01:38 12° NW 06:08:56 59° NE 06:16:25 10° ESE
IRS-1D 4.3 06:08:09 10° N 06:12:22 28° WNW 06:16:37 10° WSW
Cosmos 2219 Rocket 2.2 06:07:31 10° NNW 06:13:05 71° WSW 06:18:41 10° SSE
Meteor 1-19 Rocket 4.4 06:09:33 10° NNW 06:15:22 84° ENE 06:21:19 10° SSE
Cosmos 2322 Rocket 2.8 06:14:14 13° NW 06:18:48 37° WSW 06:23:56 10° S
BREEZE-M DEB (TANK) 4.1 06:01:31 10° W 06:20:30 86° S 06:24:57 10° E
Okean 1-7 Rocket 3.9 06:21:47 10° S 06:26:16 73° E 06:30:44 10° NNE
Cosmos 1812 Rocket 3.5 06:22:50 10° NNW 06:27:07 62° W 06:31:23 10° S
IGS 5A 3.7 06:23:27 10° N 06:27:14 41° WNW 06:31:00 10° SW
Cosmos 2322 4.0 06:22:32 10° NNW 06:28:13 70° ENE 06:33:51 10° SE
Cosmos 1484 Rocket 3.3 06:25:28 10° N 06:28:27 28° WNW 06:31:22 10° SW
SJ-12 3.8 06:28:16 10° NNE 06:32:07 84° ESE 06:35:55 10° SSW
Cosmos 2266 Rocket 4.1 06:26:17 10° S 06:32:41 86° W 06:39:02 10° N
Cosmos 1437 Rocket 2.4 06:29:52 10° NNW 06:33:18 61° W 06:36:43 10° S
Cosmos 192 4.5 06:28:45 10° NNW 06:33:34 56° WSW 06:38:21 10° S
Cosmos 1602 Rocket 3.6 06:30:35 10° SSW 06:34:59 66° WNW 06:39:27 10° N
Cosmos 1417 Rocket 4.5 06:29:14 10° NNW 06:35:18 66° W 06:41:23 10° S
ATLAS 2AS CENTAUR R/B 3.1 06:29:02 10° SSW 06:36:02 71° SE 06:42:52 10° NE
Cosmos 1743 2.8 06:37:30 10° SW 06:40:32 37° WNW 06:43:36 10° N
ARIANE 5 R/B 2.6 06:35:33 10° NNE 06:40:48 89° ESE 06:46:02 10° SSW
COSMOS 2406 4.3 06:40:32 10° W 06:45:02 24° NW 06:49:33 10° NNE
SL-16 R/B 3.9 06:43:20 10° WNW 06:46:01 14° W 06:48:42 10° SW
AQUARIUS 4.1 06:43:43 10° NNE 06:48:10 84° WNW 06:52:34 10° SSW
COSMOS 2428 2.8 06:44:47 10° NNW 06:50:32 87° ENE 06:56:15 10° SSE
SKYMED 3 4.3 06:46:37 10° SSE 06:50:37 83° WSW 06:54:38 10° NNW
Cosmos 2082 Rocket 3.8 06:47:44 10° WNW 06:51:03 16° NNW 06:54:22 10° N
SPOT 1/Viking Rocket 4.1 06:47:28 10° NNE 06:52:39 64° ESE 06:57:45 10° S
ATLAS 5 CENTAUR R/B 3.4 06:51:34 10° NNW 06:52:58 12° N 06:54:25 10° NNE
USA 234 3.5 06:49:11 10° ESE 06:55:40 68° NNE 07:02:12 10° WNW
Cosmos 2150 Rocket 4.3 06:51:14 10° NNW 06:56:43 78° ENE 07:02:08 10° SSE
